Time,TemperatureF,DewpointF,PressureIn,WindDirection,WindDirectionDegrees,WindSpeedMPH,WindSpeedGustMPH,Humidity,HourlyPrecipIn,Conditions,Clouds,dailyrainin,SoftwareType,DateUTC
2013-10-23 00:14:00,54.0,49.0,29.91,WNW,283,0.0,0.0,84,0.00,,,0.00,,2013-10-23 04:14:00,
2013-10-23 00:24:00,53.0,49.0,29.91,WNW,283,0.0,0.0,87,0.00,,,0.00,,2013-10-23 04:24:00,
2013-10-23 00:45:00,52.0,48.0,29.91,WNW,283,0.0,0.0,86,0.00,,,0.00,,2013-10-23 04:45:00,
2013-10-23 00:55:00,52.0,48.0,29.91,WNW,283,0.0,0.0,87,0.00,,,0.00,,2013-10-23 04:55:00,
2013-10-23 01:23:00,51.0,48.0,29.90,WNW,283,0.0,0.0,89,0.00,,,0.00,,2013-10-23 05:23:00,
2013-10-23 01:53:00,50.0,47.0,29.90,WNW,283,0.0,0.0,90,0.00,,,0.00,,2013-10-23 05:53:00,
2013-10-23 02:22:00,50.0,47.0,29.91,WNW,283,0.0,0.0,91,0.00,,,0.00,,2013-10-23 06:22:00,
2013-10-23 02:42:00,49.0,46.0,29.90,WNW,283,0.0,0.0,91,0.00,,,0.00,,2013-10-23 06:42:00,
2013-10-23 02:52:00,48.0,45.0,29.90,WNW,283,0.0,0.0,91,0.00,,,0.00,,2013-10-23 06:52:00,
2013-10-23 03:22:00,48.0,46.0,29.89,WNW,283,0.0,0.0,93,0.00,,,0.00,,2013-10-23 07:22:00,
2013-10-23 03:52:00,47.0,45.0,29.88,WNW,283,0.0,0.0,93,0.00,,,0.00,,2013-10-23 07:52:00,
2013-10-23 04:12:00,47.0,45.0,29.88,WNW,283,0.0,0.0,93,0.00,,,0.00,,2013-10-23 08:12:00,
2013-10-23 04:22:00,47.0,45.0,29.87,WNW,283,0.0,0.0,93,0.00,,,0.00,,2013-10-23 08:22:00,
2013-10-23 04:53:00,47.0,45.0,29.88,WNW,283,0.0,0.0,94,0.00,,,0.00,,2013-10-23 08:53:00,
2013-10-23 05:12:00,47.0,45.0,29.87,WNW,283,0.0,0.0,94,0.00,,,0.00,,2013-10-23 09:12:00,
2013-10-23 05:22:00,47.0,46.0,29.87,WNW,283,0.0,0.0,95,0.00,,,0.00,,2013-10-23 09:22:00,
2013-10-23 05:53:00,48.0,47.0,29.88,WNW,283,0.0,0.0,95,0.00,,,0.00,,2013-10-23 09:53:00,
2013-10-23 06:23:00,48.0,47.0,29.88,WNW,283,0.0,0.0,96,0.00,,,0.00,,2013-10-23 10:23:00,
2013-10-23 06:53:00,49.0,48.0,29.89,WNW,283,0.0,0.0,95,0.00,,,0.00,,2013-10-23 10:53:00,
2013-10-23 07:22:00,49.0,47.0,29.89,WNW,283,0.0,0.0,94,0.00,,,0.00,,2013-10-23 11:22:00,
2013-10-23 07:52:00,48.0,46.0,29.91,WNW,283,0.0,0.0,92,0.00,,,0.00,,2013-10-23 11:52:00,
2013-10-23 08:22:00,48.0,45.0,29.93,WNW,283,0.0,1.0,89,0.00,,,0.00,,2013-10-23 12:22:00,
2013-10-23 08:42:00,47.0,44.0,29.93,WNW,283,0.0,0.0,89,0.00,,,0.00,,2013-10-23 12:42:00,
2013-10-23 08:52:00,47.0,44.0,29.94,WNW,283,0.0,0.0,88,0.00,,,0.00,,2013-10-23 12:52:00,
2013-10-23 09:12:00,47.0,44.0,29.95,WNW,283,0.0,0.0,88,0.00,,,0.00,,2013-10-23 13:12:00,
2013-10-23 09:22:00,48.0,45.0,29.96,WNW,283,0.0,0.0,88,0.00,,,0.00,,2013-10-23 13:22:00,
2013-10-23 09:42:00,48.0,44.0,29.96,WNW,283,0.0,1.0,87,0.00,,,0.00,,2013-10-23 13:42:00,
2013-10-23 09:52:00,49.0,45.0,29.97,SW,220,0.0,3.0,85,0.00,,,0.00,,2013-10-23 13:52:00,
2013-10-23 10:22:00,50.0,43.0,29.98,West,279,1.0,3.0,78,0.00,,,0.00,,2013-10-23 14:22:00,
2013-10-23 10:52:00,50.0,41.0,29.99,WNW,300,2.0,6.0,72,0.00,,,0.00,,2013-10-23 14:52:00,
2013-10-23 11:22:00,50.0,39.0,30.02,WNW,294,1.0,7.0,67,0.00,,,0.00,,2013-10-23 15:22:00,
2013-10-23 11:43:00,50.0,39.0,30.02,WNW,287,1.0,6.0,65,0.00,,,0.00,,2013-10-23 15:43:00,
2013-10-23 11:53:00,50.0,39.0,30.03,WNW,292,4.0,9.0,65,0.00,,,0.00,,2013-10-23 15:53:00,
2013-10-23 12:23:00,51.0,38.0,30.04,West,278,2.0,6.0,61,0.00,,,0.00,,2013-10-23 16:23:00,
2013-10-23 12:53:00,52.0,39.0,30.05,NW,315,3.0,6.0,61,0.00,,,0.00,,2013-10-23 16:53:00,
2013-10-23 13:23:00,53.0,37.0,30.05,WNW,285,4.0,10.0,54,0.00,,,0.00,,2013-10-23 17:23:00,
2013-10-23 13:44:00,53.0,37.0,30.05,West,266,2.0,11.0,55,0.00,,,0.00,,2013-10-23 17:44:00,
2013-10-23 13:52:00,54.0,38.0,30.05,NW,313,327.0,327.0,55,-99.99,,,-99.99,,2013-10-23 17:52:00,
2013-10-23 14:12:00,53.0,36.0,30.06,NW,312,6.0,12.0,53,0.00,,,0.00,,2013-10-23 18:12:00,
2013-10-23 14:22:00,53.0,36.0,30.06,NW,312,6.0,12.0,53,0.00,,,0.00,,2013-10-23 18:22:00,
2013-10-23 14:32:00,53.0,36.0,30.06,NW,312,6.0,12.0,53,0.00,,,0.00,,2013-10-23 18:32:00,
2013-10-23 14:52:00,54.0,38.0,30.06,WNW,291,2.0,7.0,55,0.00,,,0.00,,2013-10-23 18:52:00,
2013-10-23 15:12:00,54.0,36.0,30.06,WNW,295,4.0,6.0,50,0.00,,,0.00,,2013-10-23 19:12:00,
2013-10-23 15:22:00,54.0,36.0,30.06,WNW,299,2.0,6.0,51,0.00,,,0.00,,2013-10-23 19:22:00,
2013-10-23 15:42:00,53.0,36.0,30.06,WNW,299,2.0,5.0,52,0.00,,,0.00,,2013-10-23 19:42:00,
2013-10-23 15:53:00,54.0,37.0,30.06,NW,310,1.0,7.0,52,0.00,,,0.00,,2013-10-23 19:53:00,
2013-10-23 16:22:00,53.0,35.0,30.07,WNW,300,3.0,9.0,51,0.00,,,0.00,,2013-10-23 20:22:00,
2013-10-23 16:52:00,55.0,36.0,30.07,WNW,299,1.0,5.0,48,0.00,,,0.00,,2013-10-23 20:52:00,
2013-10-23 17:22:00,56.0,35.0,30.07,NW,304,2.0,5.0,45,0.00,,,0.00,,2013-10-23 21:22:00,
2013-10-23 17:43:00,56.0,36.0,30.06,WNW,298,1.0,4.0,46,0.00,,,0.00,,2013-10-23 21:43:00,
2013-10-23 17:54:00,55.0,35.0,30.07,WNW,298,1.0,4.0,47,0.00,,,0.00,,2013-10-23 21:54:00,
2013-10-23 18:13:00,53.0,33.0,30.08,WNW,298,0.0,4.0,47,0.00,,,0.00,,2013-10-23 22:13:00,
2013-10-23 18:24:00,52.0,33.0,30.09,WNW,299,0.0,2.0,49,0.00,,,0.00,,2013-10-23 22:24:00,
2013-10-23 18:54:00,51.0,35.0,30.09,WNW,299,0.0,2.0,54,0.00,,,0.00,,2013-10-23 22:54:00,
2013-10-23 19:23:00,49.0,35.0,30.09,WNW,298,0.0,0.0,58,0.00,,,0.00,,2013-10-23 23:23:00,
2013-10-23 19:53:00,48.0,36.0,30.11,WNW,299,0.0,0.0,62,0.00,,,0.00,,2013-10-23 23:53:00,
2013-10-23 20:12:00,47.0,35.0,30.11,WNW,299,0.0,0.0,64,0.00,,,0.00,,2013-10-24 00:12:00,
2013-10-23 20:22:00,46.0,35.0,30.11,WNW,299,0.0,0.0,64,0.00,,,0.00,,2013-10-24 00:22:00,
2013-10-23 20:52:00,45.0,35.0,30.11,WNW,299,0.0,0.0,68,0.00,,,0.00,,2013-10-24 00:52:00,
2013-10-23 21:11:00,44.0,34.0,30.12,WNW,299,0.0,0.0,69,0.00,,,0.00,,2013-10-24 01:11:00,
2013-10-23 21:22:00,44.0,35.0,30.11,WNW,299,0.0,0.0,70,0.00,,,0.00,,2013-10-24 01:22:00,
2013-10-23 21:42:00,43.0,35.0,30.11,WNW,299,0.0,0.0,72,0.00,,,0.00,,2013-10-24 01:42:00,
2013-10-23 21:52:00,43.0,35.0,30.12,WNW,298,0.0,0.0,72,0.00,,,0.00,,2013-10-24 01:52:00,
2013-10-23 22:12:00,42.0,34.0,30.12,WNW,299,0.0,0.0,73,0.00,,,0.00,,2013-10-24 02:12:00,
2013-10-23 22:22:00,42.0,35.0,30.12,WNW,299,0.0,0.0,75,0.00,,,0.00,,2013-10-24 02:22:00,
2013-10-23 23:22:00,40.0,34.0,30.13,WNW,299,0.0,0.0,80,0.00,,,0.00,,2013-10-24 03:22:00,
2013-10-23 23:55:00,39.0,34.0,30.13,WNW,298,0.0,0.0,81,0.00,,,0.00,,2013-10-24 03:55:00,